Temp
81 80 79 73 62 61 57 62 71 65 65 71 74 73 67 67 65 55 69 74 76 76 77 79 81 80 80 80 81 81 82 82 82 82 83 82 82 83 81 82 83 84 83 84 84 84 84 84 84
80 82 74 66 58 54 57 67 63 68 71 73 74 72 68 63 70 66 68 75 76 76 76 77 79 81 81 81 81 80 83 81 82 82 83 82 81 81 83 83 83 83 83 84 84 84 84 84 84
83 82 65 60 57 52 57 69 68 72 76 75 72 75 70 63 71 70 72 75 75 74 75 79 81 82 82 82 82 82 82 82 82 82 82 83 83 83 83 83 83 83 84 84 84 84 84 84 84
78 72 68 56 56 62 66 70 74 72 76 77 74 67 72 77 73 74 76 76 73 73 75 80 82 82 83 81 81 83 83 83 83 83 83 82 82 81 82 83 83 83 83 83 83 83 83 83 83
73 67 57 55 57 63 66 69 72 72 73 73 74 65 66 73 77 76 76 76 72 72 75 78 81 82 82 81 82 83 83 83 83 83 82 83 83 83 83 83 83 83 83 83 83 83 83 83 84
62 65 56 52 57 63 63 64 67 73 73 72 69 67 64 73 75 75 76 73 75 74 75 77 82 82 82 82 82 81 83 82 82 83 84 83 84 82 83 84 83 83 83 82 83 83 83 84 83
63 60 56 56 56 60 62 67 64 72 71 71 75 62 65 69 73 76 74 74 74 75 75 75 77 80 83 82 83 81 83 83 83 83 83 83 83 84 84 84 84 84 83 83 83 82 82 82 83
66 63 58 58 55 57 64 64 75 75 71 79 78 64 60 69 75 75 74 72 72 73 74 73 74 74 75 77 83 83 83 83 83 82 83 83 84 84 84 82 83 84 84 84 83 83 83 83 83
73 59 57 58 58 61 65 64 73 80 74 78 77 74 74 74 75 72 70 70 71 73 72 72 72 72 74 76 80 81 83 83 83 81 83 76 74 76 78 82 84 84 84 83 83 83 83 83 83
67 58 62 69 66 63 64 65 71 70 74 71 72 75 75 74 73 70 69 69 68 69 71 72 72 72 73 80 74 73 75 73 73 73 73 73 73 74 79 80 82 82 84 84 84 83 84 82 76
67 62 69 68 69 69 65 65 75 69 67 71 67 70 73 72 71 69 70 71 71 72 72 72 71 71 71 73 71 71 71 71 71 72 72 72 72 71 72 72 72 72 79 76 78 78 77 76 76
66 70 72 69 71 67 65 71 72 72 73 78 74 74 73 71 71 71 70 70 70 72 72 72 70 69 69 71 71 71 71 70 69 70 71 69 68 69 68 69 70 69 70 71 72 73 75 76 76
68 71 73 73 72 70 68 66 70 71 76 79 77 74 72 72 72 71 72 70 70 71 71 70 70 69 71 71 70 70 69 69 70 69 70 70 69 68 67 69 69 68 69 70 71 72 74 74 76
70 71 71 73 72 69 67 68 73 70 76 75 74 70 72 73 72 71 71 69 69 71 69 70 71 71 71 70 70 69 69 69 68 69 69 71 69 67 68 68 69 69 69 71 71 72 73 74 74
72 64 67 69 70 69 69 65 64 70 76 73 72 71 70 74 74 74 73 71 71 69 69 70 71 71 70 70 70 68 69 69 68 69 69 71 69 69 69 68 69 70 71 72 73 74 75 75 76
64 64 59 66 66 67 65 54 65 68 72 71 71 73 73 73 74 74 74 71 71 70 68 69 78 71 69 70 70 69 69 69 69 69 70 72 71 71 71 70 70 71 71 73 74 74 73 70 71
64 52 55 61 68 65 62 57 64 68 71 71 71 72 71 70 72 73 74 74 73 70 69 69 71 71 71 70 70 70 70 70 69 70 70 72 72 73 71 69 69 70 71 72 74 74 72 69 68
52 53 58 57 63 64 59 57 62 65 69 68 70 71 72 70 71 74 74 76 74 72 72 71 71 71 71 71 69 69 69 70 70 70 69 72 71 73 70 69 69 70 69 71 72 72 71 70 70
62 58 57 62 66 62 58 58 60 63 65 64 66 68 67 70 73 76 76 77 75 73 72 71 71 70 70 69 67 67 68 69 69 70 71 72 72 72 69 67 69 69 68 70 72 72 71 67 70
64 58 57 62 67 64 59 58 62 62 64 65 65 67 70 68 69 74 75 77 75 74 73 72 73 71 72 71 70 70 69 69 70 70 71 73 73 72 71 68 68 69 69 70 72 73 71 68 68
60 58 57 59 64 64 61 57 58 61 65 66 67 68 70 68 69 70 73 75 76 74 74 74 72 72 71 72 71 70 70 69 69 70 71 72 73 73 70 68 69 69 67 70 71 72 72 68 68
53 68 66 63 55 50 60 47 56 60 60 63 67 66 68 68 68 69 72 74 75 75 76 75 72 71 72 72 71 70 68 69 69 71 72 72 74 72 71 69 69 69 69 69 70 71 70 70 66
64 71 66 62 56 53 56 51 53 58 58 61 64 69 68 68 68 69 71 73 75 76 76 76 71 71 72 71 72 70 69 70 70 71 71 71 72 72 72 70 69 69 68 69 70 71 72 68 68
72 65 60 57 50 45 53 51 50 52 60 65 65 68 70 71 72 70 71 75 72 76 76 75 71 71 71 71 71 71 70 70 72 70 70 70 70 70 71 72 69 70 69 70 71 72 72 72 72
62 53 42 41 41 42 47 49 52 59 63 65 65 67 71 72 69 69 69 70 72 73 73 74 71 70 70 71 71 71 70 70 71 71 71 70 69 69 71 70 70 70 70 69 71 73 73 73 73
56 54 46 40 40 43 48 45 54 64 67 67 69 68 71 72 71 70 72 73 73 74 74 75 72 71 70 71 71 71 71 70 71 71 71 71 72 72 72 72 72 72 72 71 71 72 73 73 73
57 52 55 45 42 44 46 53 61 65 64 65 65 66 68 71 72 73 72 72 71 74 75 75 73 73 71 71 70 70 71 71 71 71 71 71 72 73 74 73 73 73 73 73 72 72 73 73 73
60 62 52 47 39 37 44 47 48 59 62 64 64 63 65 70 72 73 73 74 74 75 75 75 75 74 73 73 72 72 72 71 71 70 71 72 72 73 73 73 74 74 74 74 73 72 72 73 72
58 52 48 47 44 40 38 44 57 60 62 60 61 64 65 68 73 73 75 76 75 75 76 74 74 74 73 73 73 72 72 72 71 70 72 73 73 73 73 73 74 74 74 74 72 72 72 72 72
59 54 51 47 42 42 43 47 62 62 62 63 63 64 64 67 72 72 72 74 76 74 76 76 76 74 75 75 74 73 72 72 71 71 72 73 72 72 72 74 73 73 73 72 72 72 74 73 72
MSLP
1009.32 1009.41 1009.58 1009.84 1010.67 1010.18 1010.14 1009.87 1009.27 1009.79 1010.16 1010.27 1010.51 1010.68 1011.97 1012.73 1013.29 1014.26 1013.80 1013.74 1013.89 1014.18 1014.18 1014.30 1014.26 1014.27 1014.33 1014.32 1014.31 1014.48 1014.46 1014.53 1014.83 1014.94 1015.15 1015.29 1015.43 1015.47 1015.53 1015.58 1015.70 1015.71 1015.81 1015.86 1015.93 1016.12 1016.28 1016.24 1016.39
1008.88 1009.24 1009.59 1010.07 1010.59 1010.92 1010.65 1010.04 1009.39 1009.23 1009.52 1010.05 1010.33 1011.00 1011.87 1013.03 1013.53 1013.96 1014.07 1013.97 1013.94 1014.25 1014.32 1014.47 1014.45 1014.42 1014.31 1014.43 1014.45 1014.62 1014.57 1014.78 1014.93 1015.14 1015.30 1015.37 1015.64 1015.83 1015.81 1015.76 1015.85 1015.97 1016.10 1016.23 1016.26 1016.51 1016.47 1016.52 1016.64
1008.50 1008.74 1009.83 1010.63 1011.47 1011.72 1010.97 1010.34 1010.12 1009.78 1009.52 1009.68 1010.74 1011.31 1012.36 1013.48 1013.80 1013.93 1013.87 1014.05 1014.13 1014.45 1014.63 1014.53 1014.33 1014.42 1014.69 1014.75 1014.83 1014.78 1014.53 1014.88 1015.10 1015.31 1015.52 1015.67 1015.86 1015.90 1015.97 1016.04 1016.11 1016.36 1016.39 1016.51 1016.71 1016.73 1016.78 1016.87 1017.08
1008.73 1009.11 1010.43 1011.41 1012.23 1012.10 1011.36 1010.90 1010.54 1010.09 1009.88 1010.13 1010.98 1012.03 1012.90 1013.05 1013.57 1013.73 1014.07 1014.18 1014.58 1014.71 1014.77 1014.75 1014.58 1014.41 1014.81 1015.00 1015.14 1015.03 1014.90 1015.04 1015.27 1015.54 1015.69 1016.06 1015.92 1016.15 1016.33 1016.35 1016.58 1016.77 1016.85 1017.00 1017.10 1017.18 1017.24 1017.38 1017.48
1009.39 1010.28 1011.32 1012.50 1012.96 1012.66 1012.46 1012.13 1011.58 1010.82 1010.34 1010.62 1011.09 1012.69 1013.51 1013.87 1013.69 1014.07 1014.47 1014.70 1014.90 1015.06 1015.02 1015.13 1015.08 1015.01 1015.10 1015.11 1015.16 1015.28 1015.33 1015.48 1015.54 1015.73 1016.02 1015.94 1016.18 1016.20 1016.51 1016.67 1016.95 1017.08 1017.16 1017.33 1017.40 1017.48 1017.62 1017.57 1017.70
1010.49 1011.24 1012.20 1013.25 1013.50 1013.32 1013.42 1012.77 1012.63 1011.28 1011.03 1011.15 1011.87 1012.85 1014.40 1014.42 1014.28 1014.62 1014.87 1015.00 1015.03 1015.34 1015.34 1015.36 1015.34 1015.42 1015.39 1015.40 1015.62 1015.58 1015.67 1015.77 1015.86 1016.06 1016.30 1016.43 1016.44 1016.74 1016.95 1017.01 1017.11 1017.15 1017.29 1017.50 1017.63 1017.77 1017.79 1017.87 1018.11
1011.10 1011.74 1012.87 1013.49 1013.75 1013.62 1013.62 1013.57 1012.74 1011.43 1011.35 1011.52 1011.71 1013.22 1014.60 1014.92 1014.91 1014.99 1015.28 1015.51 1015.48 1015.66 1015.60 1015.49 1015.42 1015.50 1015.67 1015.62 1015.73 1015.80 1015.97 1015.96 1016.13 1016.24 1016.62 1016.74 1016.79 1016.88 1017.05 1017.18 1017.25 1017.33 1017.42 1017.62 1017.84 1018.01 1018.19 1018.27 1018.25
1011.20 1011.82 1012.57 1013.11 1013.50 1013.53 1013.56 1013.25 1011.90 1011.46 1011.54 1011.71 1011.84 1013.25 1014.37 1014.68 1015.03 1015.43 1015.79 1015.98 1016.10 1016.05 1015.79 1015.71 1015.70 1015.72 1015.85 1015.95 1015.93 1016.22 1016.35 1016.36 1016.58 1016.72 1016.91 1017.09 1017.08 1017.10 1017.41 1017.59 1017.58 1017.65 1017.77 1017.94 1018.03 1018.16 1018.45 1018.29 1018.21
1010.99 1011.75 1012.18 1012.66 1012.88 1013.01 1013.46 1013.14 1012.25 1011.20 1011.45 1011.71 1011.95 1012.32 1013.17 1014.36 1015.13 1015.74 1016.29 1016.52 1016.57 1016.41 1016.17 1016.01 1016.03 1016.02 1016.05 1016.16 1016.27 1016.55 1016.73 1016.75 1016.98 1017.02 1017.17 1017.56 1017.63 1017.74 1017.83 1017.71 1017.76 1017.86 1017.97 1018.02 1018.05 1018.13 1018.21 1018.18 1018.18
1010.37 1011.37 1011.53 1011.60 1012.02 1012.78 1013.07 1013.18 1012.25 1012.02 1011.75 1012.07 1012.50 1013.13 1014.00 1014.88 1015.43 1015.80 1016.27 1016.52 1016.58 1016.54 1016.43 1016.40 1016.32 1016.33 1016.29 1016.33 1016.67 1016.90 1017.19 1017.47 1017.44 1017.49 1017.58 1017.82 1017.96 1017.96 1018.03 1018.09 1018.08 1018.11 1018.00 1018.00 1018.00 1018.06 1018.14 1018.24 1018.54
1010.61 1011.05 1010.99 1011.41 1011.86 1012.37 1012.96 1012.81 1012.26 1012.02 1012.00 1011.79 1012.26 1013.29 1014.35 1015.12 1015.82 1016.32 1016.28 1016.05 1016.01 1016.15 1016.47 1016.59 1016.54 1016.67 1016.62 1016.64 1017.07 1017.31 1017.59 1017.85 1017.80 1017.82 1017.92 1018.02 1018.19 1018.44 1018.57 1018.47 1018.45 1018.43 1018.31 1018.29 1018.36 1018.48 1018.49 1018.56 1018.71
1010.59 1010.99 1010.96 1011.43 1011.79 1012.55 1012.98 1012.71 1011.88 1011.82 1011.52 1012.09 1012.57 1013.17 1014.28 1015.24 1015.65 1015.86 1016.16 1016.17 1016.31 1016.43 1016.57 1016.71 1016.75 1016.93 1016.93 1016.99 1017.17 1017.39 1017.49 1017.81 1018.10 1018.19 1018.12 1018.46 1018.64 1018.93 1019.10 1018.87 1018.79 1018.94 1018.87 1018.73 1018.92 1018.79 1018.67 1018.62 1018.79
1010.72 1011.02 1011.16 1011.38 1011.62 1012.12 1012.76 1012.41 1011.89 1011.78 1011.45 1012.29 1013.44 1014.09 1014.52 1015.21 1015.80 1016.33 1016.24 1016.36 1016.51 1016.64 1016.87 1016.83 1016.86 1016.95 1016.72 1017.04 1017.34 1017.53 1017.69 1017.85 1017.94 1018.02 1018.40 1018.55 1018.80 1019.24 1019.22 1019.05 1019.10 1019.18 1019.07 1019.07 1018.89 1018.70 1018.57 1018.87 1018.31
1010.77 1010.92 1011.19 1011.42 1011.74 1012.28 1012.61 1012.50 1011.93 1012.69 1011.88 1012.64 1013.71 1014.46 1014.75 1014.96 1015.39 1015.98 1016.19 1016.34 1016.56 1016.76 1016.88 1016.80 1016.87 1016.90 1016.76 1017.25 1017.43 1017.79 1017.98 1018.11 1018.26 1018.21 1018.49 1018.66 1018.99 1019.22 1019.13 1019.25 1019.20 1019.35 1018.99 1018.77 1018.66 1018.48 1018.74 1018.60 1018.59
1010.62 1010.94 1011.19 1011.49 1011.65 1012.00 1012.33 1012.45 1012.77 1013.06 1012.73 1013.10 1013.75 1014.28 1014.71 1014.91 1015.18 1015.47 1015.82 1015.96 1016.31 1016.59 1016.86 1016.99 1017.07 1017.05 1017.08 1017.11 1017.42 1018.05 1018.25 1018.38 1018.42 1018.56 1018.83 1018.86 1019.01 1018.86 1019.04 1019.24 1019.27 1018.88 1018.66 1018.38 1018.34 1018.35 1018.35 1018.56 1018.72
1011.23 1011.20 1010.97 1011.59 1011.79 1012.24 1012.50 1013.14 1013.24 1013.36 1013.26 1013.31 1014.00 1014.22 1014.59 1014.76 1014.97 1015.37 1015.76 1016.02 1016.10 1016.39 1016.84 1017.00 1017.11 1017.18 1017.21 1017.13 1017.53 1017.96 1018.20 1018.37 1018.47 1018.60 1018.78 1018.91 1018.89 1018.66 1018.84 1019.08 1018.98 1018.72 1018.28 1018.02 1017.86 1018.57 1018.96 1019.07 1019.16
1011.88 1012.25 1012.03 1011.46 1011.75 1012.40 1012.74 1013.28 1013.44 1013.17 1013.32 1013.54 1013.74 1014.20 1014.46 1014.79 1015.09 1015.40 1015.47 1015.91 1016.05 1016.13 1016.61 1016.95 1017.10 1017.12 1017.29 1017.31 1017.54 1017.66 1017.94 1018.23 1018.48 1018.70 1018.79 1018.85 1018.65 1018.60 1018.72 1018.97 1019.02 1018.75 1018.40 1018.33 1018.35 1018.53 1019.05 1019.81 1019.66
1012.14 1012.39 1012.31 1012.12 1012.16 1012.56 1012.95 1013.37 1013.78 1013.77 1013.69 1013.78 1014.04 1014.31 1014.58 1014.77 1014.63 1014.82 1015.18 1015.64 1016.04 1016.37 1016.63 1017.02 1017.06 1017.13 1017.39 1017.40 1017.60 1017.90 1018.28 1018.41 1018.45 1018.65 1018.92 1018.96 1018.80 1018.69 1019.07 1019.27 1019.21 1019.16 1018.90 1018.75 1018.54 1018.64 1018.94 1019.53 1019.71
1010.90 1011.62 1011.89 1011.78 1011.89 1012.30 1012.98 1013.31 1013.35 1013.87 1014.22 1014.30 1014.14 1014.13 1014.48 1014.45 1014.36 1014.71 1015.06 1015.45 1015.81 1016.41 1016.67 1016.99 1017.13 1017.12 1017.39 1017.63 1017.95 1018.10 1018.32 1018.51 1018.58 1018.81 1019.04 1018.91 1018.78 1018.70 1019.35 1019.50 1019.46 1019.51 1019.23 1018.86 1018.68 1018.84 1019.14 1020.13 1019.99
1010.39 1011.30 1011.65 1011.66 1011.85 1012.16 1012.64 1013.11 1013.10 1013.71 1013.91 1014.30 1014.37 1013.97 1014.06 1014.44 1014.65 1014.63 1014.84 1015.20 1015.60 1016.00 1016.42 1016.84 1016.89 1017.03 1017.11 1017.24 1017.35 1017.61 1018.00 1018.36 1018.43 1018.71 1018.81 1018.80 1018.73 1018.78 1019.17 1019.54 1019.63 1019.45 1019.56 1019.19 1018.92 1018.83 1019.57 1020.13 1020.27
1010.11 1010.71 1010.95 1011.06 1011.81 1012.43 1012.65 1012.65 1013.15 1013.46 1013.43 1013.98 1014.30 1014.15 1013.92 1014.15 1014.30 1014.45 1014.57 1014.87 1015.27 1015.81 1015.96 1016.38 1016.60 1016.85 1017.04 1017.21 1017.32 1017.66 1018.14 1018.57 1018.82 1018.86 1018.85 1018.59 1018.67 1018.97 1019.33 1019.53 1019.33 1019.31 1019.55 1019.31 1019.15 1019.31 1019.22 1019.87 1020.24
1009.37 1009.73 1010.37 1011.18 1012.41 1012.89 1012.92 1013.44 1012.77 1012.90 1013.23 1013.28 1013.45 1013.82 1013.93 1014.14 1014.44 1014.43 1014.27 1014.53 1014.93 1015.19 1015.42 1015.96 1016.38 1016.59 1016.92 1017.13 1017.29 1017.67 1018.05 1018.41 1018.59 1018.64 1018.71 1018.73 1018.79 1019.15 1019.30 1019.45 1019.56 1019.54 1019.47 1019.13 1019.05 1019.19 1019.21 1019.65 1020.24
1008.55 1008.83 1010.13 1011.88 1012.94 1013.53 1013.61 1013.72 1012.67 1012.76 1013.06 1013.20 1013.18 1013.03 1013.45 1013.70 1014.08 1014.21 1014.11 1014.27 1014.52 1015.02 1015.25 1015.56 1016.10 1016.49 1016.58 1016.80 1016.93 1017.50 1018.00 1017.88 1018.10 1018.47 1018.63 1018.68 1018.69 1019.06 1019.17 1019.45 1019.67 1019.73 1019.44 1019.34 1019.07 1019.11 1019.42 1019.72 1020.04
1008.06 1009.68 1011.54 1013.07 1014.07 1014.66 1013.94 1014.14 1013.33 1013.09 1012.64 1011.79 1011.79 1012.07 1012.71 1013.21 1013.49 1013.84 1013.88 1014.19 1014.69 1014.99 1015.22 1015.59 1016.09 1016.31 1016.57 1016.71 1016.97 1017.37 1017.89 1018.05 1018.12 1018.48 1018.76 1018.95 1018.95 1019.11 1019.16 1019.21 1019.40 1019.51 1019.63 1019.73 1019.29 1019.12 1019.62 1019.68 1019.59
1008.47 1010.68 1013.01 1014.73 1015.26 1015.06 1014.40 1014.45 1013.03 1012.48 1011.96 1011.20 1010.91 1011.00 1011.11 1012.06 1013.17 1013.36 1013.69 1014.03 1014.52 1014.71 1015.10 1015.48 1015.96 1016.17 1016.45 1016.70 1016.88 1017.22 1017.62 1017.95 1017.95 1018.11 1018.47 1018.91 1018.99 1019.06 1019.11 1019.11 1019.41 1019.50 1019.49 1019.56 1019.31 1019.31 1019.71 1019.82 1019.64
1008.55 1010.11 1012.05 1013.94 1015.31 1014.95 1014.54 1013.71 1012.08 1011.76 1011.39 1010.58 1010.29 1010.73 1011.06 1011.36 1011.98 1012.94 1013.05 1013.22 1013.82 1014.12 1014.68 1015.29 1015.65 1016.04 1016.24 1016.63 1016.71 1016.89 1017.24 1017.64 1017.76 1017.72 1018.10 1018.30 1018.52 1018.64 1018.59 1018.85 1019.09 1019.25 1019.37 1019.42 1019.36 1019.47 1019.58 1019.60 1019.52
1008.39 1009.88 1011.20 1013.46 1015.13 1015.27 1014.65 1013.28 1011.97 1011.65 1011.66 1011.40 1010.39 1010.68 1011.20 1011.35 1011.50 1011.93 1012.70 1012.94 1013.23 1013.69 1014.08 1014.46 1015.06 1015.53 1015.88 1016.25 1016.66 1016.78 1016.92 1017.35 1017.61 1017.67 1017.86 1018.04 1018.12 1018.21 1018.31 1018.51 1018.84 1018.94 1019.12 1019.10 1019.24 1019.56 1019.41 1019.32 1019.35
1007.87 1009.57 1011.54 1013.36 1015.29 1015.77 1014.92 1013.95 1012.65 1011.80 1011.41 1011.26 1011.08 1011.06 1010.98 1010.96 1011.26 1011.76 1012.16 1012.84 1012.93 1013.29 1013.41 1013.85 1014.36 1014.64 1014.99 1015.73 1016.16 1016.45 1016.60 1016.80 1017.14 1017.46 1017.60 1017.73 1017.83 1017.85 1017.99 1018.33 1018.57 1018.77 1018.69 1018.63 1019.00 1019.42 1019.37 1019.21 1019.20
1008.77 1009.98 1011.94 1013.62 1014.84 1015.51 1015.31 1013.95 1012.02 1011.44 1011.23 1011.64 1011.55 1011.20 1010.98 1010.43 1010.57 1011.23 1011.58 1012.12 1012.38 1012.87 1013.17 1013.38 1013.82 1014.31 1014.61 1014.95 1015.63 1016.10 1016.35 1016.54 1016.71 1017.10 1017.33 1017.44 1017.55 1017.63 1017.78 1017.87 1018.10 1018.41 1018.75 1018.84 1019.02 1019.18 1019.20 1019.22 1019.22
1008.80 1009.84 1011.41 1013.49 1015.03 1015.37 1014.95 1013.23 1011.76 1011.26 1011.39 1011.54 1011.98 1011.86 1010.39 1010.03 1010.07 1010.74 1011.23 1011.83 1012.25 1012.49 1012.73 1012.95 1013.53 1014.02 1013.91 1014.15 1014.78 1015.39 1015.93 1016.32 1016.50 1016.75 1016.95 1017.13 1017.23 1017.37 1017.47 1017.64 1017.90 1018.24 1018.32 1018.53 1018.81 1018.98 1019.02 1019.06 1019.06
Wind_Speed
3 6 3 2 3 4 3 3 3 5 5 0 4 3 9 3 1 4 1 5 8 4 5 5 6 8 9 10 8 8 9 9 8 9 9 9 9 9 10 11 11 10 10 11 12 12 10 11 11
4 5 3 1 5 2 3 3 3 3 5 9 9 5 7 4 4 6 3 6 8 5 4 5 8 8 6 8 7 9 11 10 10 9 7 9 10 10 11 11 12 10 10 10 10 10 10 11 11
4 3 4 4 3 3 3 3 4 10 7 6 6 6 4 3 7 4 5 8 7 6 5 4 8 9 7 8 10 9 9 11 10 8 8 10 10 11 12 12 12 11 11 10 10 9 9 11 10
1 3 4 6 5 3 3 4 8 5 11 10 12 9 5 5 3 5 9 9 6 5 5 6 8 9 7 8 9 9 10 11 10 10 11 11 11 12 13 13 12 11 9 10 10 9 8 8 7
4 3 5 5 2 5 7 10 12 2 4 12 6 6 5 3 9 13 10 8 7 5 4 4 7 5 7 7 10 10 10 10 10 11 10 11 11 13 13 13 11 9 9 8 9 7 6 7 8
5 1 4 4 5 6 2 11 16 5 8 12 12 8 3 5 10 9 8 6 6 5 4 4 7 7 6 7 8 11 10 9 11 10 11 10 9 11 11 10 9 7 7 8 8 6 5 7 6
5 3 6 5 2 4 4 7 16 10 11 6 6 6 3 3 4 9 8 6 5 4 4 3 4 6 6 6 6 9 10 9 9 10 10 8 10 10 10 9 9 7 7 8 7 6 5 4 3
4 2 6 4 7 5 2 3 2 10 4 6 8 6 7 7 6 9 7 6 5 4 4 4 4 4 4 2 6 8 8 8 7 8 9 7 8 9 9 7 7 7 6 5 4 2 1 2 2
3 4 2 5 9 3 3 5 3 5 11 5 2 6 9 14 10 10 7 4 4 4 4 3 3 4 4 3 4 6 8 6 6 7 7 8 4 5 5 6 6 5 4 3 1 2 2 2 4
3 3 2 4 6 6 3 3 5 5 11 3 12 12 15 14 11 13 11 9 5 5 4 4 3 3 3 2 5 4 5 4 4 4 5 3 3 3 4 6 8 7 6 5 4 4 4 4 3
4 1 2 5 5 8 6 4 8 10 7 13 20 19 18 13 11 10 10 11 12 9 4 4 4 2 2 3 3 2 3 3 2 3 3 4 3 4 3 2 3 4 8 3 4 5 3 5 3
2 4 4 9 11 7 7 5 5 12 4 11 15 21 19 15 15 13 10 9 7 7 5 4 4 5 3 3 2 3 3 3 3 2 3 3 3 3 3 2 3 4 3 5 4 3 4 3 4
3 4 6 8 8 8 6 5 4 8 17 14 14 15 17 14 9 5 6 3 5 6 5 6 5 4 5 5 1 2 3 3 3 4 2 3 3 4 2 2 3 3 3 2 3 4 3 4 5
5 8 5 6 8 4 8 6 1 11 16 17 15 12 12 15 10 9 9 8 8 6 6 5 6 4 5 5 3 3 3 2 3 3 3 4 3 4 3 1 2 2 3 3 3 2 3 2 4
9 6 3 2 3 3 3 2 3 5 11 17 18 16 13 13 11 13 12 10 9 5 6 6 6 3 3 5 5 4 2 1 1 1 1 4 4 4 3 1 1 2 2 3 1 3 4 5 4
4 5 3 3 4 3 3 2 2 3 7 15 15 15 15 14 15 9 10 7 7 6 7 6 6 6 5 4 3 4 4 3 2 2 1 2 3 3 2 2 2 3 3 2 1 4 5 4 2
5 2 6 7 5 3 1 4 4 3 2 9 7 12 15 11 8 10 13 10 8 7 7 7 5 6 6 4 2 3 4 4 3 2 1 2 4 2 2 4 2 3 3 4 3 3 4 3 3
6 4 3 4 2 3 2 2 1 3 7 9 10 11 11 12 15 14 15 11 7 6 6 6 5 6 4 3 3 1 2 1 0 2 2 3 4 1 2 4 2 4 3 3 3 5 4 4 4
6 4 3 4 6 4 6 4 7 5 3 4 3 11 7 12 11 11 13 12 10 7 8 7 8 7 5 2 3 1 3 2 2 2 5 5 3 2 5 3 3 3 3 2 3 3 5 5 1
9 6 4 1 5 6 7 7 6 9 5 6 6 7 11 6 9 11 9 15 13 12 11 8 9 8 6 4 3 3 3 1 0 2 3 5 4 2 3 4 3 1 1 1 2 2 3 3 1
3 7 6 4 4 5 2 6 5 4 4 7 7 4 3 9 14 9 13 16 15 13 13 11 9 10 6 5 3 3 3 3 2 1 2 3 4 3 3 5 4 3 2 4 3 3 4 3 2
5 8 8 7 5 1 1 3 6 6 9 10 11 9 6 6 5 8 13 15 15 15 12 10 8 8 6 7 5 5 4 4 3 3 3 4 5 4 5 5 4 3 3 3 3 3 4 3 3
9 16 12 11 4 1 1 3 6 4 3 6 9 10 10 7 6 10 14 13 14 11 11 11 8 7 7 7 6 5 3 2 1 2 3 3 3 4 4 5 5 4 2 0 5 4 3 2 3
9 10 9 7 4 4 2 3 5 2 3 5 8 13 13 12 11 6 7 11 8 8 9 9 8 8 6 7 7 7 7 5 2 3 3 2 1 2 3 3 3 2 2 4 2 4 2 3 2
9 8 4 4 2 7 4 4 8 5 7 7 12 16 18 16 11 10 11 12 11 12 11 9 8 9 7 7 7 7 7 7 6 6 5 4 2 2 5 5 4 4 3 4 3 3 3 3 2
3 9 7 4 4 3 3 4 6 5 6 3 7 9 13 15 13 14 16 16 14 14 13 12 11 9 8 6 7 7 7 4 5 5 4 4 5 4 4 6 5 5 4 4 3 1 2 2 2
3 2 4 9 3 2 3 6 3 2 3 5 6 8 10 11 14 18 13 11 10 13 15 16 14 12 10 9 6 7 7 7 6 6 5 4 4 4 6 6 6 6 6 6 4 3 3 1 1
4 5 4 4 5 3 4 4 5 5 4 4 5 5 6 10 9 11 12 13 13 13 14 13 13 15 13 11 9 7 8 7 7 5 6 6 5 5 5 7 7 6 6 5 5 4 3 1 1
3 2 8 7 4 6 1 7 6 8 2 6 4 7 6 8 10 11 13 13 12 10 12 13 14 13 11 12 10 8 7 8 6 6 6 6 6 6 6 7 7 7 6 6 6 5 5 4 3
3 4 5 6 3 1 3 7 3 9 2 5 4 5 5 6 9 7 11 11 12 11 10 13 11 11 13 12 11 10 7 7 7 7 6 6 7 5 6 6 6 6 6 5 6 6 5 6 4
Wind_Direction
224 177 199 44 63 56 27 35 99 115 152 233 122 120 116 37 54 184 73 134 113 119 137 144 157 150 146 149 134 122 115 124 119 98 98 97 98 99 99 96 102 112 107 103 106 103 105 103 98
200 165 53 55 83 72 32 15 103 153 108 117 70 88 52 65 63 116 90 142 123 137 102 129 136 117 121 115 118 116 117 118 105 99 96 94 96 104 98 103 112 110 113 109 101 105 104 105 100
193 151 83 72 38 64 110 79 82 119 120 112 97 61 81 78 113 139 145 124 120 115 119 158 125 113 124 128 119 110 115 112 105 107 101 98 108 104 109 113 116 116 116 112 102 101 97 88 84
4 33 48 69 56 37 77 46 129 157 75 77 118 76 73 123 136 147 129 122 113 114 127 135 123 126 125 116 112 107 103 96 101 101 106 116 112 104 102 105 116 114 111 103 100 89 88 89 79
40 19 64 70 36 360 10 2 359 228 80 92 100 101 77 34 111 122 129 123 125 134 136 117 112 103 116 109 102 101 105 112 111 112 113 104 107 98 95 93 100 103 103 103 97 94 94 87 75
46 359 68 53 40 3 40 329 323 124 105 104 94 93 42 121 122 135 126 124 127 124 120 134 133 126 120 99 100 117 115 114 116 113 102 98 99 102 104 102 103 101 104 97 91 94 100 87 72
95 47 107 121 93 336 33 306 258 138 127 103 123 85 89 159 120 129 117 107 107 105 115 132 132 136 114 106 111 113 114 114 107 115 103 93 88 86 94 93 89 76 64 59 50 43 76 75 48
106 82 118 135 170 215 156 212 313 131 72 91 141 151 176 183 154 117 106 104 115 136 152 159 134 114 107 116 116 108 107 113 111 106 103 104 84 87 82 60 77 70 67 66 58 16 23 29 326
156 59 206 157 153 191 171 262 9 21 132 164 142 136 136 145 133 116 116 112 119 158 169 180 147 147 137 124 135 113 114 114 104 83 91 51 41 49 70 53 58 56 51 53 41 305 293 3 2
140 135 221 165 149 133 100 305 161 114 183 90 103 102 124 142 147 144 155 159 170 179 197 174 167 159 137 101 81 73 63 56 49 68 85 66 74 31 38 38 30 17 4 8 351 322 333 14 32
95 219 127 102 115 108 117 277 151 166 227 171 150 146 149 156 157 161 174 176 180 179 173 170 149 120 123 116 104 107 100 109 77 81 85 62 60 39 32 41 20 357 9 357 355 356 352 356 349
113 280 143 127 126 143 156 285 232 180 171 166 150 152 152 166 172 174 182 186 167 181 171 157 159 125 115 118 137 119 125 117 114 121 120 105 94 68 15 41 10 27 353 345 357 343 306 306 312
74 59 94 122 148 121 114 337 360 76 122 144 153 152 163 168 168 164 185 168 152 176 161 183 173 153 164 130 98 122 134 126 154 159 136 116 121 102 49 7 45 20 348 337 337 303 302 342 293
121 99 117 113 117 117 159 207 71 159 131 148 158 149 177 176 171 155 176 179 182 170 187 184 185 182 176 144 151 126 99 137 208 143 172 112 112 125 109 26 62 301 293 286 250 272 61 49 60
118 96 30 144 95 134 141 69 94 0 166 159 165 175 179 194 174 180 190 185 185 184 170 197 189 178 189 167 152 128 127 153 125 125 185 141 151 145 123 172 56 299 305 301 236 83 95 87 93
47 354 15 136 75 119 147 176 165 225 155 176 179 191 184 180 186 176 192 210 171 167 167 198 199 178 197 209 119 148 172 154 170 117 49 173 190 152 130 135 65 353 358 328 44 98 86 89 131
14 250 318 347 151 56 131 146 175 123 150 167 161 170 171 180 159 173 192 201 191 177 160 189 199 190 196 192 157 186 163 178 162 172 162 202 191 176 134 82 59 5 19 14 37 86 118 115 97
195 199 236 260 123 139 88 117 235 185 201 142 161 159 175 180 175 176 185 190 177 190 177 184 193 207 202 165 144 147 133 214 197 228 218 208 226 209 54 70 69 26 8 45 46 93 74 128 135
175 144 172 213 153 124 197 220 185 221 154 213 161 158 155 179 179 172 180 191 178 189 188 194 183 187 160 137 151 111 210 161 207 189 236 234 225 220 106 93 75 32 45 54 121 122 98 55 41
179 137 208 236 183 187 171 210 186 177 181 195 230 165 160 156 166 178 183 187 189 188 199 188 187 176 180 170 161 148 134 161 122 141 211 220 217 153 103 129 146 166 108 64 122 137 127 109 333
160 189 190 180 174 28 335 332 155 200 176 158 223 240 167 174 178 201 177 183 180 194 193 185 182 180 191 179 112 59 69 72 87 110 243 241 203 170 152 170 158 161 235 130 108 114 98 114 80
218 165 169 135 88 201 343 284 293 158 183 189 189 196 199 189 184 188 174 175 183 196 191 175 185 178 186 180 147 149 171 166 188 176 203 179 185 177 185 164 169 196 229 131 141 119 88 108 137
226 160 160 109 66 57 300 85 269 118 195 204 217 199 198 191 194 193 176 178 185 177 186 182 171 185 175 178 174 159 158 180 150 143 155 213 201 166 169 177 185 196 137 229 138 93 102 156 162
103 83 47 54 35 360 250 130 307 353 326 245 197 187 185 184 194 186 179 171 180 175 171 173 177 187 183 179 175 169 176 190 192 159 177 212 208 193 201 206 184 215 151 189 188 120 161 214 192
72 76 35 10 19 222 126 111 245 264 266 273 195 199 189 178 176 181 177 176 180 178 178 174 179 193 187 189 170 179 188 193 216 185 183 173 181 229 219 185 207 207 216 217 206 147 169 226 215
129 143 150 172 195 251 141 231 255 207 251 322 181 192 184 180 169 189 192 183 184 185 182 187 184 197 186 192 192 184 186 190 210 200 184 199 194 198 202 202 207 218 220 220 243 236 211 222 155
186 83 164 103 6 55 271 290 280 203 224 344 130 143 180 188 178 184 190 188 185 188 190 188 190 194 194 190 197 196 192 192 209 210 194 198 233 210 209 198 195 218 220 204 204 228 232 218 188
124 155 78 19 137 219 291 279 245 253 239 137 57 85 161 180 179 186 184 202 195 198 192 189 196 198 191 192 194 202 205 198 202 191 210 209 236 242 222 196 196 200 219 218 201 200 206 159 286
8 74 55 105 103 150 170 268 223 241 137 113 178 161 183 171 174 176 190 205 202 201 195 191 196 201 194 187 191 202 206 210 198 193 200 211 214 229 224 204 194 193 206 209 199 214 205 216 249
164 127 124 116 223 103 134 272 265 252 72 82 271 276 153 115 150 171 180 200 205 196 190 196 197 212 203 199 187 193 195 209 199 199 209 212 204 210 239 184 181 204 213 214 220 224 218 214 242